Home > Weather > Esbjerg > Past weeks

Flag for Denmark Weather for the Past 2 Weeks in Esbjerg, Denmark

Now
48 °F

Partly sunny.


Feels Like: 43 °F
Forecast: 43 / 53 °F
Wind: 13 mph from West

Location: Esbjerg Airport

Current Time: May 3, 2016 at 8:15:04 PM

Latest Report: May 3, 2016 at 7:50 PM


Visibility: N/A

Pressure: 30.18 "Hg

Humidity: 71%

Dew Point: 39 °F

Location of EsbjergLocation

Historic Weather in Esbjerg — Graph

°F

Esbjerg Temperature Yesterday

Maximum temperature yesterday: 55 °F (at 12:50 PM)
Minimum temperature yesterday: 36 °F (at 4:20 AM)
Average temperature yesterday: 48 °F

High & Low Weather Summary for the Past Weeks

 TemperatureHumidityPressure
High55 °F (May 2, 12:50 PM)100% (Apr 21, 12:50 AM)30.39 "Hg (Apr 21, 12:50 AM)
Low30 °F (Apr 24, 4:20 AM)43% (Apr 23, 12:50 PM)29.33 "Hg (Apr 26, 7:20 AM)
Average43 °F80%29.95 "Hg
* Reported Apr 18 7:20 PM — May 3 7:20 PM, Esbjerg, Weather by CustomWeather, © 2016

Note: Actual official high and low records may vary slightly from our data, if they occured in-between our weather recording intervals... More about our weather records

Advertising

Esbjerg Weather History for the Previous 24 Hours

Scroll right to see more
 ConditionsComfort  
Time TempWeatherWind HumidityBarometerVisibility
7:20 PM
Tue, May 3
48 °FPartly sunny.15 mph71%30.18 "HgN/A
6:50 PM48 °FPartly sunny.14 mph71%30.18 "HgN/A
6:20 PM48 °FScattered clouds.14 mph71%30.18 "HgN/A
5:50 PM50 °FPartly sunny.15 mph71%30.15 "HgN/A
5:20 PM50 °FPartly sunny.13 mph71%30.15 "HgN/A
4:50 PM50 °FPassing clouds.15 mph67%30.15 "HgN/A
4:20 PM50 °FPartly sunny.13 mph71%30.15 "HgN/A
3:50 PM50 °FPartly sunny.14 mph71%30.12 "HgN/A
3:20 PM52 °FPartly sunny.15 mph72%30.12 "HgN/A
2:50 PM50 °FScattered clouds.16 mph71%30.12 "HgN/A
2:20 PM52 °FPassing clouds.15 mph67%30.09 "HgN/A
1:20 PM52 °FScattered clouds.14 mph67%30.07 "HgN/A
12:50 PM52 °FPartly sunny.12 mph72%30.07 "HgN/A
12:20 PM52 °FPartly sunny.12 mph77%30.07 "HgN/A
11:50 AM52 °FPartly sunny.12 mph77%30.04 "HgN/A
11:20 AM50 °FPartly sunny.12 mph82%30.04 "HgN/A
10:50 AM50 °FPartly sunny.9 mph82%30.04 "HgN/A
10:20 AM48 °FPartly sunny.9 mph87%30.01 "HgN/A
9:50 AM48 °FPartly sunny.7 mph87%30.01 "HgN/A
9:20 AM48 °FSprinkles. Partly sunny.8 mph87%30.01 "HgN/A
8:50 AM46 °FSprinkles. Partly sunny.8 mph93%29.98 "HgN/A
8:20 AM46 °FPartly sunny.8 mph93%29.98 "HgN/A
7:20 AM46 °FLight rain. Partly sunny.9 mph93%29.95 "HgN/A
6:50 AM48 °FDrizzle. Partly sunny.12 mph94%29.95 "Hg5 mi
6:20 AM50 °FPassing clouds.8 mph94%29.92 "Hg2 mi
5:50 AM50 °FSprinkles. Passing clouds.8 mph94%29.92 "Hg4 mi
5:20 AM50 °FSprinkles. Overcast.7 mph94%29.95 "Hg4 mi
4:20 AM50 °FPassing clouds.5 mph88%29.95 "Hg6 mi
3:20 AM48 °FSprinkles. Passing clouds.5 mph94%29.95 "Hg4 mi
2:50 AM48 °FDrizzle. Overcast.5 mph87%29.98 "Hg5 mi
2:20 AM48 °FPassing clouds.5 mph87%29.98 "Hg6 mi
1:50 AM48 °FLight rain. Overcast.5 mph94%30.01 "Hg6 mi
1:20 AM48 °FDrizzle. Overcast.3 mph94%30.01 "Hg5 mi
12:50 AM50 °FSprinkles. Overcast.3 mph88%30.01 "Hg6 mi
12:20 AM50 °FSprinkles. Overcast.5 mph88%30.04 "HgN/A
11:50 PM
Mon, May 2
52 °FSprinkles. Passing clouds.5 mph82%30.04 "HgN/A
11:20 PM50 °FSprinkles. Passing clouds.3 mph94%30.04 "HgN/A
10:50 PM50 °FSprinkles. Passing clouds.3 mph94%30.04 "HgN/A
10:20 PM52 °FLight rain. Passing clouds.3 mph82%30.04 "HgN/A
9:50 PM52 °FPartly sunny.2 mph82%30.07 "HgN/A
9:20 PM52 °FPartly sunny.3 mph82%30.07 "HgN/A
8:50 PM52 °FPartly sunny.2 mph77%30.07 "HgN/A
8:20 PM54 °FPartly sunny.3 mph72%30.07 "HgN/A
Weather by CustomWeather, © 2016

See weather overviewHow to use our weather pages